Location: Lake Lucerne
(45.5315°N, 88.8489°W)
Time: 09:35:47
(UTC-05:00)

ISS - Visible Passes

Search period start: 19 September 2024 00:00
Search period end: 29 September 2024 00:00
Orbit: 414 x 423 km, 51.6° (Epoch: 19 September)

Date Brightness Start Highest point End Pass type
(mag) Time Alt. Az. Time Alt. Az. Time Alt. Az.
19 Sep -2.2 20:43:12 10° WNW 20:46:09 27° N 20:46:58 24° NNE visible
20 Sep -2.1 19:55:14 10° WNW 19:58:11 28° N 20:00:56 11° NE visible
20 Sep -1.3 21:32:21 10° NW 21:33:52 22° NW 21:33:52 22° NW visible
21 Sep -2.5 20:44:31 10° NW 20:47:35 32° NNE 20:47:47 32° NNE visible
22 Sep -2.3 19:56:35 10° NW 19:59:34 29° N 20:01:41 16° ENE visible
22 Sep -1.1 21:33:23 10° WNW 21:34:36 21° NW 21:34:36 21° NW visible
23 Sep -3.1 20:45:29 10° NW 20:48:29 47° N 20:48:29 47° N visible
24 Sep -2.8 19:57:34 10° NW 20:00:45 38° NNE 20:02:21 23° ENE visible
24 Sep -0.9 21:34:20 10° WNW 21:35:17 17° WNW 21:35:17 17° WNW visible
25 Sep -3.3 20:46:19 10° WNW 20:49:09 60° WNW 20:49:09 60° WNW visible
26 Sep -3.7 19:58:18 10° WNW 20:01:39 68° NNE 20:03:03 31° E visible
26 Sep -0.5 21:35:33 10° W 21:35:59 12° W 21:35:59 12° W visible
27 Sep -3.3 19:10:16 10° NW 19:13:32 48° NNE 19:16:48 10° E visible
27 Sep -2.3 20:47:11 10° WNW 20:49:54 32° SW 20:49:54 32° SW visible
28 Sep -3.2 19:58:57 10° WNW 20:02:14 53° SW 20:03:52 25° SSE visible
